Orbital Elements at Epoch 2459200.5 (2020-Dec-17.0) TDB
Reference: JPL 27 (heliocentric ecliptic J2000)
Element | Value | Uncertainty (1-sigma) | Units |
e | .05783006847808141 | 4.0191e-08 | |
a | 2.520902525108737 | 1.1674e-08 | au |
q | 2.375118559455131 | 1.002e-07 | au |
i | 12.76581348785309 | 3.9974e-06 | deg |
node | 52.35248986631373 | 2.0923e-05 | deg |
peri | 345.5707131235503 | 5.1472e-05 | deg |
M | 80.46655382959591 | 4.5494e-05 | deg |
tp | 2458873.727569727724 (2020-Jan-25.22756973) | 0.00018536 | TDB |
period | 1461.949956837244 4.00 | 1.0156e-05 2.781e-08 | d yr |
n | .2462464589272382 | 1.7106e-09 | deg/d |
Q | 2.666686490762344 | 1.235e-08 | au |
|
| | Orbit Determination Parameters
Additional Information
|